| time (UTC) | temp F | wind direction | speed knots | gust knots | rain 1hr in | rain 24hr in | rain mn in | humidity % | barometer mb |
| 20260906200810 | 86 | 81 | 1.7 | 5.2 | 0.00 | 0.38 | 0.38 | 63 | 1017.4 |
| 20260906200306 | 86 | 55 | 1.7 | 3.5 | 0.00 | 0.38 | 0.38 | 63 | 1017.4 |
| 20260906195801 | 87 | 2 | 1.7 | 3.5 | 0.00 | 0.38 | 0.38 | 59 | 1017.5 |
| 20260906195257 | 89 | 322 | 0.9 | 3.5 | 0.00 | 0.38 | 0.38 | 58 | 1017.5 |
| 20260906194753 | 90 | 240 | 2.6 | 5.2 | 0.00 | 0.38 | 0.38 | 54 | 1017.2 |
| 20260906194248 | 89 | 246 | 1.7 | 5.2 | 0.00 | 0.38 | 0.38 | 57 | 1017.5 |
| 20260906193743 | 89 | 278 | 0.9 | 5.2 | 0.00 | 0.38 | 0.38 | 57 | 1017.5 |
| 20260906193237 | 89 | 331 | 0.9 | 3.5 | 0.00 | 0.38 | 0.38 | 58 | 1017.5 |
| 20260906192734 | 89 | 280 | 2.6 | 6.1 | 0.00 | 0.38 | 0.38 | 58 | 1017.5 |
| 20260906192228 | 89 | 278 | 1.7 | 3.5 | 0.00 | 0.38 | 0.38 | 57 | 1017.5 |
| 20260906191727 | 88 | 226 | 4.3 | 7.0 | 0.00 | 0.38 | 0.38 | 58 | 1017.4 |
| 20260906191222 | 88 | 193 | 2.6 | 7.0 | 0.00 | 0.38 | 0.38 | 59 | 1017.5 |
| 20260906190721 | 88 | 274 | 2.6 | 5.2 | 0.00 | 0.38 | 0.38 | 57 | 1017.2 |
| 20260906190216 | 89 | 286 | 3.5 | 5.2 | 0.00 | 0.38 | 0.38 | 57 | 1017.6 |
| 20260906185715 | 88 | 265 | 2.6 | 7.0 | 0.00 | 0.38 | 0.38 | 57 | 1017.5 |
| 20260906185214 | 88 | 273 | 4.3 | 6.1 | 0.00 | 0.38 | 0.38 | 58 | 1017.5 |
| 20260906184709 | 87 | 295 | 3.5 | 6.1 | 0.00 | 0.38 | 0.38 | 58 | 1017.4 |
| 20260906184204 | 87 | 183 | 1.7 | 5.2 | 0.00 | 0.38 | 0.38 | 58 | 1017.8 |
| 20260906183700 | 86 | 246 | 2.6 | 7.8 | 0.00 | 0.38 | 0.38 | 59 | 1017.8 |
| 20260906183156 | 86 | 238 | 1.7 | 3.5 | 0.00 | 0.38 | 0.38 | 59 | 1017.6 |
| 20260906182656 | 87 | 235 | 2.6 | 7.0 | 0.00 | 0.38 | 0.38 | 58 | 1017.7 |
| 20260906182152 | 87 | 150 | 2.6 | 5.2 | 0.00 | 0.38 | 0.38 | 57 | 1017.6 |
| 20260906181647 | 87 | 233 | 1.7 | 7.0 | 0.00 | 0.38 | 0.38 | 57 | 1017.6 |
| 20260906181143 | 87 | 223 | 4.3 | 6.1 | 0.00 | 0.38 | 0.38 | 57 | 1017.6 |
| 20260906180639 | 86 | 261 | 3.5 | 6.1 | 0.00 | 0.38 | 0.38 | 58 | 1017.6 |
| 20260906180138 | 87 | 278 | 0.9 | 5.2 | 0.00 | 0.38 | 0.38 | 58 | 1017.6 |
| 20260906175636 | 87 | 240 | 3.5 | 3.5 | 0.00 | 0.38 | 0.38 | 57 | 1017.6 |
| 20260906175132 | 87 | 251 | 2.6 | 7.0 | 0.00 | 0.38 | 0.38 | 57 | 1017.6 |
| 20260906174630 | 87 | 287 | 0.9 | 5.2 | 0.00 | 0.38 | 0.38 | 57 | 1017.6 |
| 20260906174125 | 86 | 286 | 3.5 | 5.2 | 0.00 | 0.38 | 0.38 | 58 | 1017.5 |
| 20260906173620 | 86 | 197 | 3.5 | 5.2 | 0.00 | 0.38 | 0.38 | 56 | 1017.5 |
| 20260906173115 | 86 | 312 | 1.7 | 3.5 | 0.00 | 0.38 | 0.38 | 58 | 1017.6 |
| 20260906172609 | 85 | 177 | 1.7 | 6.1 | 0.00 | 0.38 | 0.38 | 58 | 1017.5 |
| 20260906172105 | 85 | 273 | 4.3 | 7.8 | 0.00 | 0.38 | 0.38 | 57 | 1017.1 |
| 20260906171604 | 85 | 267 | 2.6 | 7.0 | 0.00 | 0.38 | 0.38 | 58 | 1017.2 |
| 20260906171100 | 86 | 245 | 3.5 | 7.0 | 0.00 | 0.38 | 0.38 | 57 | 1017.4 |
| 20260906170556 | 85 | 213 | 1.7 | 6.1 | 0.00 | 0.38 | 0.38 | 57 | 1017.4 |
| 20260906170055 | 85 | 305 | 2.6 | 3.5 | 0.00 | 0.38 | 0.38 | 56 | 1017.4 |
| 20260906165552 | 85 | 270 | 5.2 | 7.8 | 0.00 | 0.38 | 0.38 | 55 | 1017.5 |
| 20260906165046 | 85 | 205 | 4.3 | 6.1 | 0.00 | 0.38 | 0.38 | 55 | 1017.2 |
| 20260906164546 | 84 | 195 | 3.5 | 8.7 | 0.00 | 0.38 | 0.38 | 55 | 1017.1 |
| 20260906164042 | 83 | 274 | 0.9 | 5.2 | 0.00 | 0.38 | 0.38 | 57 | 1017.1 |
| 20260906163537 | 82 | 228 | 1.7 | 2.6 | 0.00 | 0.38 | 0.38 | 58 | 1017.1 |
| 20260906163033 | 82 | 259 | 2.6 | 7.8 | 0.00 | 0.38 | 0.38 | 56 | 1016.9 |
| 20260906162530 | 81 | 295 | 0.9 | 5.2 | 0.00 | 0.38 | 0.38 | 56 | 1017.2 |
| 20260906162025 | 80 | 277 | 1.7 | 6.1 | 0.00 | 0.38 | 0.38 | 56 | 1017.2 |
| 20260906161520 | 78 | 302 | 0.9 | 1.7 | 0.00 | 0.38 | 0.38 | 60 | 1017.1 |
| 20260906161018 | 78 | 253 | 2.6 | 3.5 | 0.00 | 0.38 | 0.38 | 61 | 1017.2 |
| 20260906160518 | 77 | 259 | 1.7 | 1.7 | 0.00 | 0.38 | 0.38 | 61 | 1017.4 |
| 20260906160017 | 76 | 27 | 0.9 | 1.7 | 0.00 | 0.38 | 0.38 | 63 | 1017.1 |
| 20260906155514 | 75 | 278 | 0.9 | 2.6 | 0.00 | 0.38 | 0.38 | 65 | 1017.2 |
| 20260906155010 | 75 | 291 | 0.0 | 1.7 | 0.00 | 0.38 | 0.38 | 69 | 1017.0 |
| 20260906154506 | 75 | 304 | 0.0 | 0.0 | 0.00 | 0.38 | 0.38 | 69 | 1017.2 |
| 20260906154004 | 76 | 283 | 0.9 | 5.2 | 0.00 | 0.38 | 0.38 | 63 | 1017.4 |
| 20260906153503 | 76 | 301 | 1.7 | 1.7 | 0.00 | 0.38 | 0.38 | 63 | 1016.5 |
| 20260906152958 | 76 | 269 | 2.6 | 5.2 | 0.00 | 0.38 | 0.38 | 63 | 1016.8 |
| 20260906152453 | 75 | 246 | 3.5 | 5.2 | 0.00 | 0.38 | 0.38 | 62 | 1016.9 |
| 20260906151953 | 75 | 76 | 2.6 | 5.2 | 0.00 | 0.38 | 0.38 | 64 | 1016.7 |
| 20260906151448 | 75 | 249 | 1.7 | 3.5 | 0.00 | 0.38 | 0.38 | 66 | 1017.0 |
| 20260906150944 | 75 | 247 | 4.3 | 6.1 | 0.00 | 0.38 | 0.38 | 64 | 1016.7 |
| 20260906150439 | 74 | 205 | 3.5 | 6.1 | 0.00 | 0.38 | 0.38 | 65 | 1016.1 |
| 20260906145938 | 74 | 122 | 6.1 | 8.7 | 0.00 | 0.38 | 0.38 | 67 | 1016.5 |
| 20260906145437 | 73 | 190 | 6.1 | 13.9 | 0.00 | 0.38 | 0.38 | 70 | 1016.8 |
| 20260906144932 | 72 | 326 | 1.7 | 8.7 | 0.00 | 0.38 | 0.38 | 74 | 1017.2 |
| 20260906144426 | 72 | 91 | 3.5 | 6.1 | 0.00 | 0.38 | 0.38 | 76 | 1017.5 |
| 20260906143922 | 70 | 275 | 1.7 | 3.5 | 0.00 | 0.38 | 0.38 | 80 | 1017.5 |
| 20260906143418 | 70 | 273 | 0.9 | 3.5 | 0.00 | 0.38 | 0.38 | 82 | 1017.5 |
| 20260906142913 | 69 | 297 | 0.9 | 6.1 | 0.00 | 0.38 | 0.38 | 86 | 1018.2 |
| 20260906142413 | 69 | 299 | 2.6 | 7.8 | 0.00 | 0.38 | 0.38 | 87 | 1017.8 |
| 20260906141908 | 68 | 292 | 4.3 | 9.6 | 0.00 | 0.38 | 0.38 | 89 | 1017.2 |
| 20260906141408 | 68 | 140 | 1.7 | 5.2 | 0.00 | 0.38 | 0.38 | 91 | 1018.4 |
| 20260906140902 | 68 | 290 | 0.9 | 2.6 | 0.00 | 0.38 | 0.38 | 92 | 1019.4 |
| 20260906140357 | 68 | 267 | 3.5 | 3.5 | 0.00 | 0.38 | 0.38 | 93 | 1019.6 |
| 20260906135854 | 68 | 311 | 0.9 | 3.5 | 0.07 | 0.38 | 0.38 | 94 | 1019.9 |
| 20260906135348 | 67 | 240 | 1.7 | 1.7 | 0.12 | 0.38 | 0.38 | 95 | 1020.1 |
| 20260906134844 | 67 | 287 | 0.9 | 1.7 | 0.12 | 0.37 | 0.37 | 94 | 1020.6 |
| 20260906134339 | 67 | 282 | 0.9 | 0.9 | 0.19 | 0.36 | 0.36 | 97 | 1020.5 |
| 20260906133835 | 67 | 286 | 0.0 | 0.0 | 0.24 | 0.35 | 0.35 | 97 | 1020.8 |
| 20260906133330 | 67 | 268 | 1.7 | 2.6 | 0.24 | 0.33 | 0.33 | 97 | 1021.1 |
| 20260906132825 | 67 | 282 | 0.0 | 1.7 | 0.24 | 0.31 | 0.31 | 97 | 1021.0 |
| 20260906132321 | 67 | 328 | 0.0 | 2.6 | 0.19 | 0.29 | 0.29 | 97 | 1020.6 |
| 20260906131816 | 67 | 345 | 0.9 | 0.9 | 0.07 | 0.27 | 0.27 | 97 | 1020.1 |
| 20260906131311 | 67 | 338 | 0.0 | 0.9 | 0.05 | 0.26 | 0.26 | 97 | 1020.1 |
| 20260906130807 | 67 | 321 | 0.0 | 0.9 | 0.05 | 0.26 | 0.26 | 97 | 1020.1 |
| 20260906130301 | 67 | 342 | 0.0 | 0.9 | 0.07 | 0.25 | 0.25 | 97 | 1019.9 |
| 20260906125800 | 68 | 307 | 0.9 | 2.6 | 0.19 | 0.25 | 0.25 | 97 | 1020.7 |
| 20260906125258 | 68 | 252 | 0.9 | 3.5 | 0.24 | 0.24 | 0.24 | 97 | 1020.5 |
| 20260906124752 | 67 | 271 | 1.7 | 1.7 | 0.12 | 0.22 | 0.22 | 97 | 1020.6 |
| 20260906124248 | 67 | 301 | 0.9 | 2.6 | 0.05 | 0.20 | 0.20 | 97 | 1020.2 |
| 20260906123747 | 67 | 302 | 0.0 | 0.0 | 0.05 | 0.20 | 0.20 | 97 | 1020.2 |
| 20260906123242 | 67 | 273 | 0.9 | 1.7 | 0.07 | 0.19 | 0.19 | 97 | 1020.3 |
| 20260906122742 | 67 | 335 | 0.0 | 0.0 | 0.12 | 0.19 | 0.19 | 97 | 1020.6 |
| 20260906122237 | 67 | 353 | 0.9 | 1.7 | 0.12 | 0.18 | 0.18 | 97 | 1020.5 |
| 20260906121734 | 67 | 353 | 0.9 | 1.7 | 0.14 | 0.17 | 0.17 | 97 | 1020.0 |
| 20260906121230 | 67 | 357 | 0.9 | 1.7 | 0.19 | 0.16 | 0.16 | 97 | 1020.0 |
| 20260906120725 | 67 | 345 | 0.9 | 0.9 | 0.17 | 0.15 | 0.15 | 96 | 1020.1 |
| 20260906120222 | 67 | 341 | 0.9 | 1.7 | 0.05 | 0.13 | 0.13 | 96 | 1020.2 |
| 20260906115718 | 67 | 344 | 0.9 | 1.7 | 0.07 | 0.12 | 0.12 | 96 | 1020.2 |
| 20260906115213 | 67 | 6 | 0.9 | 1.7 | 0.12 | 0.12 | 0.12 | 96 | 1020.3 |
| 20260906114711 | 67 | 341 | 0.9 | 1.7 | 0.17 | 0.11 | 0.11 | 95 | 1020.2 |
| 20260906114206 | 67 | 344 | 0.9 | 1.7 | 0.19 | 0.10 | 0.10 | 95 | 1020.2 |
| 20260906113701 | 67 | 349 | 0.9 | 1.7 | 0.07 | 0.08 | 0.08 | 95 | 1019.8 |
| 20260906113201 | 68 | 345 | 0.9 | 2.6 | 0.05 | 0.07 | 0.07 | 94 | 1020.1 |
| 20260906112700 | 68 | 352 | 0.9 | 1.7 | 0.17 | 0.07 | 0.07 | 94 | 1020.6 |
| 20260906112158 | 68 | 46 | 0.9 | 1.7 | 0.38 | 0.06 | 0.06 | 92 | 1020.2 |
| 20260906111657 | 69 | 4 | 1.7 | 3.5 | 0.26 | 0.04 | 0.04 | 91 | 1019.9 |
| 20260906111151 | 69 | 352 | 1.7 | 3.5 | 0.00 | 0.00 | 0.00 | 88 | 1019.7 |
| 20260906110646 | 70 | 343 | 0.9 | 1.7 | 0.00 | 0.00 | 0.00 | 88 | 1019.7 |
| 20260906110142 | 70 | 348 | 0.9 | 0.9 | 0.00 | 0.00 | 0.00 | 87 | 1019.7 |
| 20260906105635 | 71 | 341 | 1.7 | 1.7 | 0.00 | 0.00 | 0.00 | 86 | 1019.3 |
| 20260906105132 | 71 | 350 | 0.0 | 1.7 | 0.00 | 0.00 | 0.00 | 85 | 1019.0 |
| 20260906104631 | 73 | 341 | 1.7 | 6.1 | 0.00 | 0.00 | 0.00 | 82 | 1018.6 |
| 20260906104130 | 73 | 346 | 1.7 | 2.6 | 0.00 | 0.00 | 0.00 | 79 | 1018.7 |
| 20260906103629 | 73 | 11 | 2.6 | 2.6 | 0.00 | 0.00 | 0.00 | 78 | 1018.5 |
| 20260906103124 | 74 | 13 | 0.9 | 2.6 | 0.00 | 0.00 | 0.00 | 78 | 1018.2 |
| 20260906102620 | 74 | 347 | 0.9 | 2.6 | 0.00 | 0.00 | 0.00 | 77 | 1018.2 |
| 20260906102114 | 75 | 8 | 1.7 | 3.5 | 0.00 | 0.00 | 0.00 | 76 | 1018.3 |
| 20260906101608 | 75 | 342 | 1.7 | 2.6 | 0.00 | 0.00 | 0.00 | 75 | 1018.2 |
| 20260906101108 | 75 | 336 | 1.7 | 3.5 | 0.00 | 0.00 | 0.00 | 75 | 1018.1 |
| 20260906100604 | 75 | 2 | 1.7 | 3.5 | 0.00 | 0.00 | 0.00 | 75 | 1018.0 |
| 20260906100059 | 75 | 34 | 3.5 | 7.8 | 0.00 | 0.00 | 0.00 | 75 | 1017.9 |
| 20260906095559 | 76 | 339 | 0.9 | 3.5 | 0.00 | 0.00 | 0.00 | 76 | 1018.0 |
| 20260906095054 | 76 | 324 | 1.7 | 7.0 | 0.00 | 0.00 | 0.00 | 76 | 1018.1 |
| 20260906094553 | 76 | 349 | 1.7 | 1.7 | 0.00 | 0.00 | 0.00 | 78 | 1018.2 |
| 20260906094049 | 75 | 346 | 1.7 | 1.7 | 0.00 | 0.00 | 0.00 | 79 | 1017.9 |
| 20260906093544 | 75 | 310 | 0.9 | 1.7 | 0.00 | 0.00 | 0.00 | 80 | 1018.2 |
| 20260906093039 | 75 | 323 | 0.0 | 0.0 | 0.00 | 0.00 | 0.00 | 79 | 1016.8 |
| 20260906092534 | 75 | 343 | 0.0 | 1.7 | 0.00 | 0.00 | 0.00 | 79 | 1016.8 |
| 20260906092030 | 75 | 349 | 0.0 | 0.9 | 0.00 | 0.00 | 0.00 | 79 | 1016.7 |
| 20260906091525 | 75 | 358 | 0.0 | 1.7 | 0.00 | 0.00 | 0.00 | 79 | 1016.6 |
| 20260906091022 | 76 | 4 | 0.9 | 1.7 | 0.00 | 0.00 | 0.00 | 78 | 1016.7 |
| 20260906090521 | 76 | 7 | 0.0 | 1.7 | 0.00 | 0.00 | 0.00 | 78 | 1016.5 |
| 20260906090016 | 76 | 12 | 0.9 | 1.7 | 0.00 | 0.00 | 0.00 | 78 | 1016.6 |
| 20260906085515 | 76 | 1 | 0.0 | 1.7 | 0.00 | 0.00 | 0.00 | 78 | 1016.7 |
| 20260906085010 | 76 | 274 | 0.0 | 0.9 | 0.00 | 0.00 | 0.00 | 78 | 1016.8 |
| 20260906084509 | 76 | 343 | 0.0 | 0.9 | 0.00 | 0.00 | 0.00 | 78 | 1016.4 |
| 20260906084008 | 76 | 23 | 0.9 | 0.9 | 0.00 | 0.00 | 0.00 | 78 | 1016.5 |
| 20260906083504 | 76 | 329 | 0.9 | 0.9 | 0.00 | 0.00 | 0.00 | 78 | 1016.4 |
| 20260906083003 | 76 | 64 | 1.7 | 2.6 | 0.00 | 0.00 | 0.00 | 78 | 1016.6 |
| 20260906082459 | 76 | 13 | 0.9 | 0.9 | 0.00 | 0.00 | 0.00 | 78 | 1016.7 |
| 20260906081954 | 76 | 71 | 0.9 | 1.7 | 0.00 | 0.00 | 0.00 | 77 | 1016.4 |
| 20260906081449 | 76 | 299 | 0.0 | 1.7 | 0.00 | 0.00 | 0.00 | 77 | 1016.2 |
| 20260906080945 | 76 | 308 | 0.0 | 1.7 | 0.00 | 0.00 | 0.00 | 76 | 1016.6 |
| 20260906080443 | 76 | 314 | 0.0 | 0.9 | 0.00 | 0.00 | 0.00 | 77 | 1016.5 |
| 20260906075942 | 76 | 65 | 0.9 | 0.9 | 0.00 | 0.00 | 0.00 | 77 | 1016.6 |
| 20260906075437 | 76 | 274 | 0.0 | 0.9 | 0.00 | 0.00 | 0.00 | 77 | 1016.8 |
| 20260906074932 | 76 | 346 | 0.0 | 1.7 | 0.00 | 0.00 | 0.00 | 78 | 1016.7 |
| 20260906074426 | 76 | 52 | 0.9 | 0.9 | 0.00 | 0.00 | 0.00 | 78 | 1016.7 |
| 20260906073925 | 76 | 312 | 0.0 | 0.9 | 0.00 | 0.00 | 0.00 | 78 | 1016.3 |
| 20260906073420 | 76 | 275 | 0.0 | 0.9 | 0.00 | 0.00 | 0.00 | 79 | 1016.6 |
| 20260906072917 | 76 | 320 | 0.0 | 0.0 | 0.00 | 0.00 | 0.00 | 79 | 1016.8 |
| 20260906072412 | 76 | 319 | 0.0 | 0.0 | 0.00 | 0.00 | 0.00 | 79 | 1016.9 |
| 20260906071908 | 76 | 340 | 0.9 | 0.9 | 0.00 | 0.00 | 0.00 | 78 | 1016.7 |
| 20260906071403 | 77 | 340 | 0.0 | 0.9 | 0.00 | 0.00 | 0.00 | 78 | 1016.7 |
| 20260906070858 | 77 | 19 | 0.9 | 1.7 | 0.00 | 0.00 | 0.00 | 78 | 1017.1 |
| 20260906070355 | 77 | 301 | 0.0 | 0.9 | 0.00 | 0.00 | 0.00 | 78 | 1016.9 |
| 20260906065850 | 77 | 341 | 0.0 | 0.0 | 0.00 | 0.00 | 0.00 | 78 | 1017.0 |
| 20260906065344 | 77 | 60 | 1.7 | 1.7 | 0.00 | 0.00 | 0.00 | 78 | 1016.8 |
| 20260906064840 | 77 | 335 | 0.0 | 0.0 | 0.00 | 0.00 | 0.00 | 79 | 1016.8 |
| 20260906064337 | 77 | 11 | 0.0 | 0.9 | 0.00 | 0.00 | 0.00 | 79 | 1016.6 |
| 20260906063836 | 77 | 26 | 1.7 | 1.7 | 0.00 | 0.00 | 0.00 | 78 | 1016.5 |
| 20260906063332 | 78 | 16 | 0.9 | 0.9 | 0.00 | 0.00 | 0.00 | 76 | 1016.7 |
| 20260906062827 | 78 | 13 | 0.9 | 0.9 | 0.00 | 0.00 | 0.00 | 75 | 1016.5 |
| 20260906062326 | 78 | 355 | 0.9 | 0.9 | 0.00 | 0.00 | 0.00 | 74 | 1016.6 |
| 20260906061821 | 78 | 358 | 0.0 | 0.9 | 0.00 | 0.00 | 0.00 | 74 | 1016.5 |
| 20260906061318 | 78 | 262 | 0.9 | 0.9 | 0.00 | 0.00 | 0.00 | 74 | 1016.5 |
| 20260906060812 | 79 | 356 | 0.0 | 0.9 | 0.00 | 0.00 | 0.00 | 73 | 1016.4 |
| 20260906060310 | 79 | 308 | 0.9 | 0.9 | 0.00 | 0.00 | 0.00 | 73 | 1016.6 |
| 20260906055806 | 79 | 315 | 0.0 | 0.0 | 0.00 | 0.00 | 0.00 | 73 | 1016.4 |
| 20260906055301 | 79 | 349 | 0.9 | 2.6 | 0.00 | 0.00 | 0.00 | 72 | 1016.6 |
| 20260906054756 | 79 | 346 | 0.0 | 2.6 | 0.00 | 0.00 | 0.00 | 72 | 1016.6 |
| 20260906054251 | 79 | 345 | 0.0 | 1.7 | 0.00 | 0.00 | 0.00 | 73 | 1016.7 |
| 20260906053748 | 79 | 331 | 0.0 | 1.7 | 0.00 | 0.00 | 0.00 | 72 | 1016.7 |
| 20260906053243 | 79 | 10 | 0.9 | 1.7 | 0.00 | 0.00 | 0.00 | 73 | 1016.8 |
| 20260906052738 | 79 | 318 | 0.0 | 0.9 | 0.00 | 0.00 | 0.00 | 74 | 1016.8 |
| 20260906052234 | 79 | 352 | 0.0 | 0.9 | 0.00 | 0.00 | 0.00 | 75 | 1016.9 |
| 20260906051731 | 79 | 2 | 0.0 | 0.9 | 0.00 | 0.00 | 0.00 | 75 | 1016.8 |
| 20260906051231 | 79 | 6 | 0.9 | 0.9 | 0.00 | 0.00 | 0.00 | 75 | 1016.9 |
| 20260906050726 | 79 | 342 | 0.0 | 0.0 | 0.00 | 0.00 | 0.00 | 75 | 1017.0 |
| 20260906050221 | 79 | 342 | 0.0 | 0.0 | 0.00 | 0.00 | 0.00 | 75 | 1017.0 |
| 20260906045720 | 79 | 342 | 0.0 | 0.9 | 0.00 | 0.00 | 0.00 | 74 | 1016.9 |
| 20260906045215 | 80 | 342 | 0.0 | 0.9 | 0.00 | 0.00 | 0.00 | 74 | 1016.8 |
| 20260906044711 | 80 | 36 | 0.9 | 0.9 | 0.00 | 0.00 | 0.00 | 72 | 1016.8 |
| 20260906044206 | 80 | 351 | 0.9 | 0.9 | 0.00 | 0.00 | 0.00 | 72 | 1016.8 |
| 20260906043702 | 81 | 340 | 0.0 | 0.0 | 0.00 | 0.00 | 0.00 | 71 | 1016.9 |
| 20260906043157 | 81 | 340 | 0.0 | 0.9 | 0.00 | 0.00 | 0.00 | 70 | 1016.9 |
| 20260906042657 | 81 | 340 | 0.9 | 0.9 | 0.00 | 0.00 | 0.00 | 69 | 1016.9 |
| 20260906042156 | 82 | 313 | 0.0 | 0.0 | 0.00 | 0.00 | 0.00 | 69 | 1016.9 |
| 20260906041652 | 82 | 309 | 0.0 | 0.0 | 0.00 | 0.00 | 0.00 | 69 | 1016.7 |
| 20260906041147 | 82 | 13 | 0.9 | 1.7 | 0.00 | 0.00 | 0.00 | 68 | 1016.7 |
| 20260906040643 | 82 | 336 | 0.9 | 1.7 | 0.00 | 0.00 | 0.00 | 68 | 1016.8 |
| 20260906040138 | 82 | 295 | 0.0 | 0.9 | 0.00 | 0.00 | 0.00 | 68 | 1016.8 |
| 20260906035633 | 82 | 299 | 0.0 | 0.9 | 0.00 | 0.00 | 0.00 | 68 | 1016.5 |
| 20260906035129 | 82 | 337 | 0.0 | 0.9 | 0.00 | 0.00 | 0.00 | 68 | 1016.6 |
| 20260906034629 | 82 | 83 | 0.9 | 2.6 | 0.00 | 0.00 | 0.00 | 69 | 1016.5 |
| 20260906034124 | 82 | 357 | 0.0 | 0.9 | 0.00 | 0.00 | 0.00 | 72 | 1016.5 |
| 20260906033620 | 82 | 354 | 0.9 | 0.9 | 0.00 | 0.00 | 0.00 | 72 | 1016.6 |
| 20260906033114 | 82 | 346 | 0.9 | 1.7 | 0.00 | 0.00 | 0.00 | 72 | 1016.5 |
| 20260906032611 | 82 | 9 | 0.0 | 0.9 | 0.00 | 0.00 | 0.00 | 73 | 1016.4 |
| 20260906032111 | 82 | 318 | 0.0 | 1.7 | 0.00 | 0.00 | 0.00 | 73 | 1016.3 |
| 20260906031606 | 82 | 11 | 0.0 | 0.9 | 0.00 | 0.00 | 0.00 | 74 | 1016.2 |
| 20260906031102 | 82 | 11 | 0.0 | 0.9 | 0.00 | 0.00 | 0.00 | 73 | 1016.3 |
| 20260906030601 | 82 | 11 | 0.0 | 0.9 | 0.00 | 0.00 | 0.00 | 73 | 1016.4 |
| 20260906030055 | 82 | 0 | 0.0 | 1.7 | 0.00 | 0.00 | 0.00 | 72 | 1016.3 |
| 20260906025550 | 82 | 345 | 0.9 | 1.7 | 0.00 | 0.00 | 0.00 | 73 | 1016.1 |
| 20260906025048 | 82 | 339 | 0.0 | 0.9 | 0.00 | 0.00 | 0.00 | 74 | 1016.4 |
| 20260906024543 | 82 | 339 | 0.0 | 0.0 | 0.00 | 0.00 | 0.00 | 74 | 1016.2 |
| 20260906024037 | 82 | 339 | 0.9 | 0.9 | 0.00 | 0.00 | 0.00 | 74 | 1016.1 |
| 20260906023534 | 83 | 339 | 0.0 | 0.9 | 0.00 | 0.00 | 0.00 | 74 | 1016.0 |
| 20260906023028 | 83 | 341 | 0.0 | 0.0 | 0.00 | 0.00 | 0.00 | 73 | 1016.1 |
| 20260906022524 | 83 | 346 | 0.9 | 0.9 | 0.00 | 0.00 | 0.00 | 73 | 1016.1 |
| 20260906022019 | 84 | 10 | 0.0 | 0.9 | 0.00 | 0.00 | 0.00 | 73 | 1015.9 |
| 20260906021514 | 84 | 354 | 0.0 | 0.0 | 0.00 | 0.00 | 0.00 | 72 | 1015.8 |
| 20260906021009 | 84 | 354 | 0.0 | 0.9 | 0.00 | 0.00 | 0.00 | 71 | 1015.8 |
| 20260906020508 | 84 | 4 | 0.9 | 1.7 | 0.00 | 0.00 | 0.00 | 71 | 1015.6 |
| 20260906020008 | 84 | 1 | 0.9 | 0.9 | 0.00 | 0.00 | 0.00 | 71 | 1015.6 |
| 20260906015507 | 84 | 309 | 0.0 | 1.7 | 0.00 | 0.00 | 0.00 | 73 | 1015.4 |
| 20260906015006 | 83 | 295 | 0.0 | 0.9 | 0.00 | 0.00 | 0.00 | 75 | 1015.8 |
| 20260906014501 | 84 | 8 | 0.9 | 0.9 | 0.00 | 0.00 | 0.00 | 75 | 1015.6 |
| 20260906013951 | 83 | 13 | 0.0 | 0.9 | 0.00 | 0.00 | 0.00 | 75 | 1015.5 |
| 20260906013447 | 83 | 0 | 0.0 | 0.0 | 0.00 | 0.00 | 0.00 | 76 | 1015.4 |
| 20260906012942 | 83 | 0 | 0.0 | 0.9 | 0.00 | 0.00 | 0.00 | 75 | 1015.5 |
| 20260906012437 | 83 | 0 | 0.0 | 0.0 | 0.00 | 0.00 | 0.00 | 75 | 1015.3 |
| 20260906011936 | 84 | 0 | 0.0 | 0.0 | 0.00 | 0.00 | 0.00 | 75 | 1015.5 |
| 20260906011432 | 84 | 0 | 0.0 | 0.0 | 0.00 | 0.00 | 0.00 | 74 | 1015.2 |
| 20260906010927 | 84 | 0 | 0.0 | 0.9 | 0.00 | 0.00 | 0.00 | 73 | 1015.2 |
| 20260906010422 | 85 | 0 | 0.0 | 0.0 | 0.00 | 0.00 | 0.00 | 72 | 1015.2 |
| 20260906005919 | 86 | 0 | 0.0 | 0.0 | 0.00 | 0.00 | 0.00 | 70 | 1015.2 |
| 20260906005418 | 86 | 3 | 0.9 | 1.7 | 0.00 | 0.00 | 0.00 | 69 | 1015.2 |
| 20260906004916 | 86 | 351 | 0.0 | 0.9 | 0.00 | 0.00 | 0.00 | 69 | 1015.1 |
| 20260906004411 | 87 | 36 | 0.9 | 2.6 | 0.00 | 0.00 | 0.00 | 67 | 1015.2 |
| 20260906003907 | 87 | 344 | 0.0 | 0.9 | 0.00 | 0.00 | 0.00 | 67 | 1015.2 |
| 20260906003402 | 87 | 348 | 0.9 | 0.9 | 0.00 | 0.00 | 0.00 | 67 | 1015.0 |
| 20260906002857 | 88 | 344 | 0.9 | 1.7 | 0.00 | 0.00 | 0.00 | 66 | 1015.0 |
| 20260906002356 | 88 | 340 | 0.0 | 0.0 | 0.00 | 0.00 | 0.00 | 66 | 1015.1 |
| 20260906001852 | 88 | 357 | 0.0 | 0.9 | 0.00 | 0.00 | 0.00 | 65 | 1015.1 |
| 20260906001348 | 89 | 312 | 0.9 | 2.6 | 0.00 | 0.00 | 0.00 | 64 | 1015.1 |
| 20260906000842 | 89 | 159 | 0.9 | 3.5 | 0.00 | 0.00 | 0.00 | 63 | 1014.9 |
| 20260906000337 | 89 | 299 | 0.0 | 0.9 | 0.00 | 0.00 | 0.00 | 63 | 1015.0 |
| 20260905235836 | 89 | 256 | 0.0 | 3.5 | 0.00 | 0.00 | 0.00 | 63 | 1014.9 |
| 20260905235331 | 89 | 79 | 1.7 | 3.5 | 0.00 | 0.00 | 0.00 | 63 | 1014.8 |
| 20260905234827 | 89 | 287 | 1.7 | 5.2 | 0.00 | 0.00 | 0.00 | 62 | 1015.1 |
| 20260905234322 | 89 | 82 | 1.7 | 5.2 | 0.00 | 0.00 | 0.00 | 62 | 1015.0 |
| 20260905233816 | 90 | 91 | 3.5 | 5.2 | 0.00 | 0.00 | 0.00 | 62 | 1015.0 |
| 20260905233311 | 90 | 291 | 1.7 | 1.7 | 0.00 | 0.00 | 0.00 | 62 | 1014.9 |
| 20260905232810 | 90 | 47 | 1.7 | 5.2 | 0.00 | 0.00 | 0.00 | 62 | 1014.7 |
| 20260905232307 | 90 | 44 | 2.6 | 5.2 | 0.00 | 0.00 | 0.00 | 61 | 1014.9 |
| 20260905231802 | 90 | 80 | 2.6 | 5.2 | 0.00 | 0.00 | 0.00 | 61 | 1014.8 |
| 20260905231257 | 90 | 70 | 1.7 | 3.5 | 0.00 | 0.00 | 0.00 | 62 | 1014.9 |
| 20260905230748 | 90 | 107 | 1.7 | 7.0 | 0.00 | 0.00 | 0.00 | 62 | 1014.8 |
| 20260905230245 | 90 | 79 | 3.5 | 6.1 | 0.00 | 0.00 | 0.00 | 61 | 1014.7 |
| 20260905225740 | 90 | 46 | 1.7 | 2.6 | 0.00 | 0.00 | 0.00 | 62 | 1014.8 |
| 20260905225235 | 90 | 135 | 0.9 | 3.5 | 0.00 | 0.00 | 0.00 | 61 | 1015.0 |
| 20260905224734 | 90 | 67 | 4.3 | 5.2 | 0.00 | 0.00 | 0.00 | 62 | 1014.8 |
| 20260905224230 | 90 | 11 | 5.2 | 7.0 | 0.00 | 0.00 | 0.00 | 60 | 1014.9 |
| 20260905223726 | 91 | 76 | 2.6 | 7.0 | 0.00 | 0.00 | 0.00 | 61 | 1015.2 |
| 20260905223222 | 91 | 339 | 1.7 | 3.5 | 0.00 | 0.00 | 0.00 | 61 | 1014.9 |
| 20260905222718 | 91 | 92 | 3.5 | 6.1 | 0.00 | 0.00 | 0.00 | 61 | 1015.1 |
| 20260905222217 | 91 | 84 | 4.3 | 7.0 | 0.00 | 0.00 | 0.00 | 60 | 1014.9 |
| 20260905221713 | 91 | 95 | 2.6 | 6.1 | 0.00 | 0.00 | 0.00 | 60 | 1015.3 |
| 20260905221210 | 91 | 217 | 1.7 | 5.2 | 0.00 | 0.00 | 0.00 | 62 | 1015.1 |
| 20260905220705 | 91 | 112 | 2.6 | 2.6 | 0.00 | 0.00 | 0.00 | 63 | 1015.2 |
| 20260905220201 | 91 | 96 | 3.5 | 5.2 | 0.00 | 0.00 | 0.00 | 63 | 1015.1 |
| 20260905215700 | 90 | 75 | 0.9 | 6.1 | 0.00 | 0.00 | 0.00 | 63 | 1015.3 |
| 20260905215156 | 91 | 110 | 3.5 | 5.2 | 0.00 | 0.00 | 0.00 | 62 | 1015.4 |
| 20260905214652 | 91 | 287 | 0.9 | 3.5 | 0.00 | 0.00 | 0.00 | 62 | 1015.5 |
| 20260905214147 | 90 | 85 | 1.7 | 7.0 | 0.00 | 0.00 | 0.00 | 62 | 1015.5 |
| 20260905213642 | 91 | 230 | 1.7 | 5.2 | 0.00 | 0.00 | 0.00 | 63 | 1015.8 |
| 20260905213137 | 90 | 154 | 2.6 | 7.0 | 0.00 | 0.00 | 0.00 | 65 | 1015.8 |
| 20260905212632 | 90 | 89 | 4.3 | 8.7 | 0.00 | 0.00 | 0.00 | 65 | 1015.6 |
| 20260905212132 | 90 | 146 | 4.3 | 6.1 | 0.00 | 0.00 | 0.00 | 65 | 1016.0 |
| 20260905211627 | 90 | 100 | 3.5 | 8.7 | 0.00 | 0.00 | 0.00 | 65 | 1016.1 |
| 20260905211123 | 90 | 119 | 3.5 | 5.2 | 0.00 | 0.00 | 0.00 | 66 | 1016.1 |
| 20260905210620 | 90 | 302 | 0.0 | 1.7 | 0.00 | 0.00 | 0.00 | 64 | 1016.2 |
| 20260905210113 | 90 | 49 | 1.7 | 3.5 | 0.00 | 0.00 | 0.00 | 64 | 1016.3 |
| 20260905205612 | 90 | 224 | 4.3 | 7.0 | 0.00 | 0.00 | 0.00 | 64 | 1016.4 |
| 20260905205112 | 89 | 292 | 1.7 | 5.2 | 0.00 | 0.00 | 0.00 | 65 | 1016.3 |
| 20260905204606 | 89 | 101 | 5.2 | 7.0 | 0.00 | 0.00 | 0.00 | 66 | 1016.5 |
| 20260905204102 | 89 | 136 | 4.3 | 6.1 | 0.00 | 0.00 | 0.00 | 67 | 1016.5 |
| 20260905203601 | 90 | 4 | 1.7 | 3.5 | 0.00 | 0.00 | 0.00 | 67 | 1016.5 |
| 20260905203057 | 89 | 105 | 3.5 | 7.0 | 0.00 | 0.00 | 0.00 | 69 | 1016.6 |
| 20260905202552 | 88 | 321 | 0.0 | 5.2 | 0.00 | 0.00 | 0.00 | 68 | 1016.6 |
| 20260905202048 | 89 | 129 | 4.3 | 7.0 | 0.00 | 0.00 | 0.00 | 67 | 1016.7 |
| 20260905201543 | 88 | 89 | 1.7 | 2.6 | 0.00 | 0.00 | 0.00 | 66 | 1016.6 |